QFA76 CYVR-YSSY

Flight info

Callsign QFA76
Flight time N/A
Altitude 34000
Route TOU DCT SEDAR DCT HEKAB A332 AUNTI/N0496F360 R463 APACK DCT CHOKO B326 NIXEE DCT 18N165W 11N172W 05N178W/N0497F380 01N178E 05S173E 07S172E 14S168E 17S165E/N0489F400 19S163E DCT HARVS DCT IDNER H98 SANAD H91 IGDAM H652 TESAT
Aircraft B789/H-SDE1E2E3FGHIJ2J3J4J5M1RWXY/LB1D1

Departure

Time N/A
Airport Vancouver International Airport (CYVR)

Arrival

Time 2026-05-04 11:16
Airport Sydney Kingsford Smith International Airport (YSSY)
Time Latitude Longitude Altitude Speed Heading
2026-05-04 06:25 -8.03186 171.42244 39829 ft 461 kts 211°
2026-05-04 06:26 -8.08786 171.39100 39826 ft 461 kts 211°
2026-05-04 06:26 -8.14396 171.35950 39818 ft 462 kts 211°
2026-05-04 06:27 -8.28416 171.28073 39825 ft 463 kts 211°
2026-05-04 06:28 -8.34033 171.24914 39821 ft 462 kts 211°
2026-05-04 06:28 -8.39637 171.21763 39823 ft 460 kts 211°
2026-05-04 06:29 -8.45220 171.18622 39824 ft 459 kts 211°
2026-05-04 06:29 -8.50761 171.15503 39822 ft 460 kts 211°
2026-05-04 06:30 -8.56362 171.12351 39827 ft 461 kts 211°
2026-05-04 06:30 -8.61973 171.09191 39832 ft 462 kts 212°
2026-05-04 06:31 -8.67567 171.06039 39834 ft 459 kts 212°
2026-05-04 06:31 -8.73093 171.02924 39826 ft 457 kts 212°
2026-05-04 06:33 -8.95302 170.90398 39821 ft 458 kts 212°
2026-05-04 06:34 -9.00866 170.87257 39825 ft 458 kts 212°
2026-05-04 06:34 -9.06432 170.84114 39828 ft 458 kts 212°
2026-05-04 06:36 -9.28651 170.71555 39828 ft 458 kts 212°
2026-05-04 06:37 -9.34212 170.68409 39824 ft 458 kts 212°
2026-05-04 06:37 -9.39748 170.65276 39825 ft 455 kts 212°
2026-05-04 06:38 -9.45227 170.62173 39826 ft 454 kts 212°
2026-05-04 06:40 -9.67284 170.49674 39830 ft 455 kts 212°
2026-05-04 06:40 -9.72811 170.46539 39833 ft 454 kts 212°
2026-05-04 06:41 -9.78314 170.43416 39830 ft 452 kts 212°
2026-05-04 06:41 -9.83803 170.40300 39829 ft 452 kts 212°
2026-05-04 06:42 -9.89262 170.37200 39834 ft 453 kts 212°
2026-05-04 06:44 -10.11218 170.24720 39845 ft 454 kts 212°
2026-05-04 06:44 -10.16721 170.21589 39847 ft 453 kts 212°
2026-05-04 06:45 -10.22208 170.18465 39839 ft 452 kts 212°
2026-05-04 06:45 -10.27693 170.15342 39845 ft 452 kts 212°
2026-05-04 06:46 -10.33146 170.12236 39845 ft 453 kts 212°
2026-05-04 06:46 -10.38637 170.09106 39849 ft 453 kts 212°
2026-05-04 06:48 -10.60417 169.96681 39857 ft 449 kts 213°
2026-05-04 06:50 -10.82193 169.84238 39862 ft 451 kts 213°
2026-05-04 06:51 -10.87662 169.81109 39861 ft 450 kts 213°
2026-05-04 06:51 -10.93116 169.77988 39852 ft 450 kts 213°
2026-05-04 06:52 -10.98567 169.74868 39857 ft 449 kts 213°
2026-05-04 06:52 -11.03975 169.71770 39856 ft 449 kts 213°
2026-05-04 06:53 -11.09419 169.68651 39860 ft 449 kts 213°
2026-05-04 06:53 -11.14856 169.65534 39862 ft 449 kts 213°
2026-05-04 06:54 -11.20295 169.62415 39861 ft 449 kts 213°
2026-05-04 06:54 -11.25691 169.59319 39868 ft 448 kts 213°
2026-05-04 06:55 -11.31131 169.56197 39870 ft 448 kts 213°
2026-05-04 06:55 -11.36569 169.53074 39871 ft 448 kts 213°
2026-05-04 06:57 -11.58221 169.40626 39857 ft 446 kts 213°
2026-05-04 06:58 -11.63631 169.37513 39858 ft 447 kts 213°
2026-05-04 06:58 -11.69043 169.34397 39851 ft 446 kts 213°
2026-05-04 06:59 -11.74401 169.31310 39857 ft 446 kts 213°
2026-05-04 06:59 -11.79807 169.28194 39856 ft 447 kts 213°
2026-05-04 07:01 -12.01315 169.15786 39878 ft 445 kts 213°
2026-05-04 07:02 -12.06707 169.12671 39876 ft 445 kts 213°
2026-05-04 07:02 -12.11183 169.10084 39872 ft 444 kts 213°
2026-05-04 07:03 -12.17432 169.06472 39877 ft 443 kts 213°
2026-05-04 07:03 -12.22790 169.03372 39859 ft 442 kts 213°
2026-05-04 07:04 -12.28140 169.00276 39857 ft 443 kts 213°
2026-05-04 07:04 -12.32600 168.97694 39861 ft 444 kts 213°
2026-05-04 07:05 -12.38851 168.94074 39880 ft 444 kts 213°
2026-05-04 07:05 -12.44224 168.90959 39862 ft 444 kts 213°
2026-05-04 07:06 -12.51381 168.86810 39867 ft 444 kts 213°
2026-05-04 07:07 -12.56757 168.83690 39874 ft 444 kts 213°
2026-05-04 07:09 -12.78146 168.71266 39869 ft 444 kts 213°
2026-05-04 07:09 -12.83515 168.68144 39863 ft 443 kts 213°
2026-05-04 07:10 -12.88875 168.65024 39873 ft 443 kts 213°
2026-05-04 07:12 -13.10218 168.52589 39878 ft 443 kts 213°
2026-05-04 07:12 -13.15538 168.49486 39881 ft 442 kts 213°
2026-05-04 07:13 -13.20878 168.46370 39877 ft 441 kts 213°
2026-05-04 07:13 -13.26202 168.43260 39875 ft 440 kts 213°
2026-05-04 07:14 -13.39466 168.35508 39874 ft 441 kts 213°
2026-05-04 07:15 -13.44805 168.32385 39878 ft 442 kts 213°
2026-05-04 07:15 -13.50151 168.29256 39878 ft 442 kts 213°
2026-05-04 07:16 -13.55489 168.26131 39880 ft 441 kts 213°
2026-05-04 07:16 -13.60774 168.23034 39880 ft 439 kts 212°
2026-05-04 07:17 -13.66077 168.19926 39882 ft 439 kts 213°
2026-05-04 07:17 -13.71391 168.16809 39883 ft 440 kts 212°
2026-05-04 07:18 -13.76719 168.13682 39885 ft 441 kts 212°
2026-05-04 07:18 -13.82021 168.10569 39893 ft 442 kts 212°
2026-05-04 07:19 -13.87370 168.07427 39894 ft 442 kts 212°
2026-05-04 07:19 -13.92710 168.04288 39899 ft 442 kts 212°
2026-05-04 07:20 -13.98053 168.01146 39889 ft 442 kts 213°
2026-05-04 07:20 -14.02781 167.97265 39893 ft 438 kts 225°
2026-05-04 07:22 -14.20475 167.79917 39895 ft 439 kts 225°
2026-05-04 07:23 -14.24868 167.75601 39896 ft 439 kts 225°
2026-05-04 07:23 -14.29290 167.71255 39897 ft 439 kts 225°
2026-05-04 07:24 -14.33706 167.66911 39897 ft 439 kts 225°
2026-05-04 07:24 -14.38124 167.62562 39897 ft 439 kts 225°
2026-05-04 07:26 -14.55755 167.45186 39889 ft 440 kts 225°
2026-05-04 07:27 -14.60145 167.40853 39891 ft 440 kts 224°
2026-05-04 07:27 -14.64557 167.36496 39888 ft 437 kts 225°
2026-05-04 07:28 -14.68942 167.32163 39882 ft 436 kts 225°
2026-05-04 07:28 -14.73324 167.27830 39880 ft 437 kts 225°
2026-05-04 07:29 -14.77688 167.23512 39882 ft 438 kts 225°
2026-05-04 07:29 -14.82090 167.19156 39886 ft 439 kts 225°
2026-05-04 07:30 -14.86512 167.14775 39894 ft 440 kts 225°
2026-05-04 07:30 -14.90927 167.10399 39894 ft 439 kts 225°
2026-05-04 07:31 -14.95323 167.06040 39896 ft 437 kts 224°
2026-05-04 07:33 -15.12833 166.88650 39916 ft 439 kts 225°
2026-05-04 07:33 -15.17238 166.84268 39915 ft 439 kts 225°
2026-05-04 07:34 -15.21606 166.79921 39914 ft 438 kts 225°
2026-05-04 07:34 -15.25996 166.75549 39915 ft 438 kts 225°
2026-05-04 07:35 -15.30383 166.71178 39915 ft 438 kts 225°
2026-05-04 07:35 -15.34770 166.66803 39913 ft 438 kts 225°
2026-05-04 07:36 -15.39123 166.62461 39903 ft 437 kts 225°
2026-05-04 07:38 -15.56568 166.45028 39893 ft 437 kts 225°
2026-05-04 07:38 -15.60945 166.40648 39907 ft 437 kts 225°
2026-05-04 07:39 -15.65321 166.36266 39904 ft 437 kts 225°
2026-05-04 07:39 -15.69699 166.31879 39905 ft 438 kts 225°
2026-05-04 07:40 -15.74078 166.27489 39906 ft 438 kts 225°
2026-05-04 07:40 -15.78424 166.23128 39907 ft 438 kts 225°
2026-05-04 07:41 -15.82804 166.18731 39905 ft 438 kts 225°
2026-05-04 07:41 -15.87176 166.14339 39901 ft 437 kts 225°
2026-05-04 07:42 -15.91545 166.09948 39907 ft 437 kts 225°
2026-05-04 07:42 -15.95873 166.05595 39905 ft 436 kts 225°
2026-05-04 07:43 -16.00221 166.01218 39903 ft 434 kts 225°
2026-05-04 07:43 -16.04557 165.96851 39900 ft 434 kts 225°
2026-05-04 07:44 -16.08901 165.92474 39895 ft 435 kts 225°
2026-05-04 07:44 -16.13226 165.88112 39900 ft 437 kts 225°
2026-05-04 07:45 -16.17589 165.83710 39912 ft 438 kts 225°
2026-05-04 07:45 -16.21964 165.79292 39924 ft 438 kts 225°
2026-05-04 07:46 -16.26334 165.74877 39901 ft 437 kts 225°
2026-05-04 07:46 -16.30663 165.70499 39897 ft 436 kts 225°
2026-05-04 07:47 -16.35011 165.66101 39897 ft 436 kts 225°
2026-05-04 07:49 -16.52371 165.48509 39905 ft 437 kts 225°
2026-05-04 07:49 -16.56723 165.44092 39917 ft 436 kts 225°
2026-05-04 07:50 -16.61064 165.39683 39918 ft 435 kts 224°
2026-05-04 07:50 -16.65394 165.35281 39916 ft 434 kts 225°
2026-05-04 07:51 -16.69684 165.30918 39912 ft 433 kts 225°
2026-05-04 07:51 -16.74005 165.26520 39913 ft 435 kts 225°
2026-05-04 07:52 -16.78340 165.22106 39917 ft 436 kts 225°
2026-05-04 07:52 -16.82692 165.17670 39925 ft 438 kts 225°
2026-05-04 07:54 -16.99977 165.00027 39915 ft 435 kts 224°
2026-05-04 07:55 -17.04360 164.95723 39926 ft 436 kts 224°
2026-05-04 07:55 -17.08776 164.91352 39931 ft 437 kts 223°
2026-05-04 07:56 -17.13199 164.87008 39931 ft 436 kts 224°
2026-05-04 07:56 -17.17593 164.82663 39928 ft 434 kts 223°
2026-05-04 07:57 -17.21976 164.78343 39923 ft 431 kts 223°
2026-05-04 07:57 -17.26311 164.74059 39921 ft 432 kts 223°
2026-05-04 07:58 -17.30686 164.69737 39918 ft 433 kts 223°
2026-05-04 07:58 -17.35075 164.65394 39923 ft 435 kts 223°
2026-05-04 07:59 -17.39457 164.61058 39929 ft 436 kts 223°
2026-05-04 07:59 -17.43858 164.56699 39928 ft 435 kts 223°
2026-05-04 08:00 -17.48248 164.52349 39926 ft 434 kts 224°
2026-05-04 08:02 -17.65726 164.34996 39921 ft 434 kts 224°
2026-05-04 08:02 -17.70112 164.30633 39923 ft 435 kts 224°
2026-05-04 08:03 -17.74502 164.26265 39923 ft 436 kts 224°
2026-05-04 08:03 -17.78872 164.21912 39936 ft 436 kts 224°
2026-05-04 08:04 -17.83257 164.17541 39936 ft 433 kts 224°
2026-05-04 08:04 -17.87611 164.13199 39930 ft 431 kts 224°
2026-05-04 08:05 -17.91962 164.08856 39929 ft 432 kts 224°
2026-05-04 08:05 -17.96299 164.04525 39933 ft 434 kts 224°
2026-05-04 08:06 -18.00674 164.00151 39939 ft 435 kts 224°
2026-05-04 08:06 -18.05064 163.95760 39943 ft 436 kts 224°
2026-05-04 08:08 -18.22450 163.78339 39930 ft 430 kts 224°
2026-05-04 08:11 -18.41946 163.58743 39946 ft 433 kts 224°
2026-05-04 08:11 -18.48407 163.52234 39940 ft 429 kts 224°
2026-05-04 08:12 -18.52729 163.47876 39937 ft 430 kts 224°
2026-05-04 08:12 -18.57057 163.43509 39940 ft 431 kts 224°
2026-05-04 08:13 -18.61394 163.39130 39943 ft 432 kts 224°
2026-05-04 08:13 -18.65743 163.34735 39950 ft 433 kts 224°
2026-05-04 08:14 -18.70064 163.30365 39964 ft 433 kts 224°
2026-05-04 08:16 -18.87316 163.12886 39936 ft 430 kts 224°
2026-05-04 08:16 -18.91629 163.08508 39936 ft 430 kts 224°
2026-05-04 08:17 -18.95947 163.04122 39943 ft 431 kts 224°
2026-05-04 08:17 -19.00269 162.99739 39955 ft 431 kts 222°
2026-05-04 08:19 -19.17901 162.82686 39952 ft 431 kts 223°
2026-05-04 08:20 -19.22329 162.78398 39955 ft 432 kts 223°
2026-05-04 08:20 -19.26737 162.74122 39961 ft 433 kts 223°
2026-05-04 08:21 -19.31175 162.69816 39953 ft 432 kts 223°
2026-05-04 08:21 -19.35585 162.65531 39953 ft 429 kts 223°
2026-05-04 08:22 -19.39978 162.61261 39942 ft 428 kts 223°
2026-05-04 08:24 -19.57597 162.44102 39962 ft 431 kts 224°
2026-05-04 08:24 -19.61972 162.39833 39957 ft 429 kts 224°
2026-05-04 08:25 -19.66356 162.35551 39956 ft 428 kts 224°
2026-05-04 08:25 -19.70730 162.31277 39953 ft 428 kts 224°
2026-05-04 08:27 -19.88257 162.14114 39965 ft 432 kts 224°
2026-05-04 08:28 -19.92650 162.09804 39965 ft 428 kts 224°
2026-05-04 08:28 -19.97014 162.05518 39960 ft 426 kts 224°
2026-05-04 08:29 -20.01340 162.01268 39952 ft 427 kts 224°
2026-05-04 08:31 -20.18768 161.84107 39975 ft 427 kts 224°
2026-05-04 08:33 -20.36082 161.67004 39976 ft 427 kts 224°
2026-05-04 08:35 -20.53469 161.49775 39971 ft 426 kts 224°
2026-05-04 08:35 -20.57781 161.45493 39966 ft 426 kts 224°
2026-05-04 08:37 -20.72919 161.30434 39966 ft 425 kts 224°
2026-05-04 08:38 -20.77242 161.26126 39976 ft 424 kts 224°
2026-05-04 08:38 -20.81552 161.21827 39967 ft 424 kts 224°
2026-05-04 08:40 -20.98853 161.04534 39978 ft 426 kts 224°
2026-05-04 08:41 -21.03180 161.00200 39973 ft 425 kts 224°
2026-05-04 08:41 -21.07460 160.95910 39978 ft 423 kts 224°
2026-05-04 08:42 -21.11747 160.91609 39974 ft 423 kts 224°
2026-05-04 08:42 -21.16041 160.87298 39971 ft 424 kts 225°
2026-05-04 08:43 -21.20346 160.82971 39974 ft 425 kts 225°
2026-05-04 08:43 -21.24658 160.78634 39977 ft 426 kts 225°
2026-05-04 08:44 -21.28949 160.74314 39984 ft 426 kts 225°
2026-05-04 08:46 -21.46084 160.57030 39971 ft 422 kts 225°
2026-05-04 08:46 -21.50360 160.52708 39971 ft 422 kts 225°
2026-05-04 08:47 -21.54639 160.48379 39975 ft 423 kts 225°
2026-05-04 08:47 -21.58933 160.44031 39977 ft 425 kts 225°
2026-05-04 08:48 -21.63229 160.39677 39986 ft 424 kts 225°
2026-05-04 08:48 -21.67490 160.35355 39984 ft 423 kts 225°
2026-05-04 08:49 -21.71764 160.31016 39982 ft 422 kts 225°
2026-05-04 08:50 -21.86650 160.15875 39979 ft 424 kts 225°
2026-05-04 08:51 -21.90935 160.11508 39992 ft 424 kts 225°
2026-05-04 08:51 -21.95216 160.07141 39990 ft 424 kts 225°
2026-05-04 08:52 -21.99467 160.02801 39988 ft 424 kts 225°
2026-05-04 08:52 -22.03738 159.98437 39988 ft 423 kts 225°
2026-05-04 08:54 -22.20773 159.80993 39979 ft 422 kts 226°
2026-05-04 08:55 -22.25026 159.76628 39973 ft 421 kts 226°
2026-05-04 08:55 -22.29272 159.72267 39973 ft 421 kts 226°
2026-05-04 09:01 -22.73703 159.26396 39996 ft 418 kts 226°
2026-05-04 09:01 -22.77911 159.22028 39994 ft 419 kts 226°
2026-05-04 09:02 -22.82120 159.17657 39986 ft 420 kts 227°
2026-05-04 09:02 -22.86346 159.13263 39995 ft 422 kts 227°
2026-05-04 09:03 -22.90562 159.08876 40002 ft 423 kts 227°
2026-05-04 09:03 -22.94803 159.04460 40017 ft 422 kts 227°
2026-05-04 09:04 -22.99006 159.00079 39998 ft 418 kts 227°
2026-05-04 09:04 -23.03198 158.95704 39996 ft 417 kts 227°
2026-05-04 09:05 -23.07356 158.91361 39991 ft 417 kts 227°
2026-05-04 09:05 -23.11541 158.86987 39990 ft 417 kts 227°
2026-05-04 09:06 -23.15725 158.82609 39990 ft 418 kts 227°
2026-05-04 09:08 -23.32519 158.64998 40007 ft 420 kts 227°
2026-05-04 09:08 -23.36716 158.60587 40000 ft 419 kts 227°
2026-05-04 09:09 -23.40874 158.56213 40003 ft 418 kts 227°
2026-05-04 09:09 -23.45045 158.51821 40000 ft 417 kts 227°
2026-05-04 09:10 -23.49211 158.47430 40013 ft 415 kts 227°
2026-05-04 09:10 -23.53360 158.43052 40012 ft 415 kts 227°
2026-05-04 09:11 -23.57510 158.38669 40018 ft 416 kts 227°
2026-05-04 09:11 -23.61649 158.34295 40019 ft 417 kts 227°
2026-05-04 09:12 -23.65820 158.29882 40017 ft 418 kts 227°
2026-05-04 09:14 -23.82418 158.12282 40001 ft 414 kts 228°
2026-05-04 09:14 -23.86549 158.07892 40001 ft 414 kts 228°
2026-05-04 09:15 -23.90678 158.03498 40011 ft 414 kts 228°
2026-05-04 09:15 -23.94806 157.99103 40010 ft 414 kts 228°
2026-05-04 09:17 -24.13269 157.79389 40013 ft 415 kts 228°
2026-05-04 09:18 -24.17404 157.74964 40022 ft 416 kts 228°
2026-05-04 09:18 -24.21538 157.70535 40028 ft 415 kts 228°
2026-05-04 09:19 -24.25661 157.66113 40026 ft 414 kts 229°
2026-05-04 09:19 -24.29758 157.61715 40027 ft 411 kts 229°
2026-05-04 09:20 -24.33809 157.57361 40024 ft 411 kts 229°
2026-05-04 09:20 -24.37901 157.52961 40017 ft 412 kts 229°
2026-05-04 09:21 -24.41993 157.48555 40020 ft 413 kts 229°
2026-05-04 09:21 -24.46095 157.44135 40021 ft 414 kts 229°
2026-05-04 09:22 -24.50176 157.39733 40037 ft 414 kts 229°
2026-05-04 09:22 -24.54267 157.35317 40030 ft 411 kts 229°
2026-05-04 09:23 -24.58333 157.30921 40030 ft 409 kts 229°
2026-05-04 09:23 -24.62395 157.26527 40033 ft 411 kts 229°
2026-05-04 09:25 -24.78637 157.08914 40029 ft 409 kts 230°
2026-05-04 09:26 -24.82660 157.04541 40032 ft 410 kts 230°
2026-05-04 09:26 -24.86730 157.00113 40038 ft 412 kts 230°
2026-05-04 09:27 -24.90807 156.95672 40045 ft 412 kts 230°
2026-05-04 09:27 -24.94881 156.91231 40043 ft 412 kts 230°
2026-05-04 09:28 -24.98954 156.86786 40057 ft 412 kts 230°
2026-05-04 09:28 -25.02992 156.82375 40044 ft 410 kts 230°
2026-05-04 09:29 -25.07031 156.77958 40039 ft 409 kts 230°
2026-05-04 09:29 -25.11072 156.73535 40044 ft 409 kts 230°
2026-05-04 09:30 -25.15113 156.69109 40037 ft 410 kts 230°
2026-05-04 09:30 -25.19131 156.64702 40044 ft 410 kts 230°
2026-05-04 09:31 -25.23175 156.60262 40066 ft 410 kts 230°
2026-05-04 09:31 -25.27218 156.55820 40040 ft 410 kts 231°
2026-05-04 09:32 -25.31258 156.51376 40047 ft 410 kts 231°
2026-05-04 09:34 -25.47394 156.33584 40077 ft 411 kts 231°
2026-05-04 09:34 -25.51431 156.29121 40056 ft 409 kts 231°
2026-05-04 09:35 -25.55418 156.24709 40048 ft 407 kts 231°
2026-05-04 09:35 -25.59428 156.20265 40052 ft 409 kts 231°
2026-05-04 09:37 -25.75936 156.02761 40063 ft 413 kts 226°
2026-05-04 09:38 -25.80358 155.98669 40061 ft 414 kts 226°
2026-05-04 09:38 -25.84791 155.94588 40067 ft 414 kts 226°
2026-05-04 09:39 -25.89219 155.90494 40066 ft 415 kts 226°
2026-05-04 09:39 -25.93638 155.86410 40074 ft 416 kts 226°
2026-05-04 09:40 -25.98093 155.82287 40071 ft 416 kts 227°
2026-05-04 09:40 -26.02520 155.78188 40066 ft 413 kts 227°
2026-05-04 09:42 -26.20155 155.61807 40079 ft 415 kts 227°
2026-05-04 09:43 -26.24590 155.57678 40079 ft 415 kts 227°
2026-05-04 09:43 -26.29024 155.53546 40080 ft 416 kts 227°
2026-05-04 09:44 -26.33433 155.49432 40086 ft 416 kts 227°
2026-05-04 09:46 -26.51146 155.32863 40082 ft 413 kts 227°
2026-05-04 09:46 -26.55543 155.28738 40077 ft 413 kts 227°
2026-05-04 09:47 -26.59942 155.24608 40080 ft 413 kts 227°
2026-05-04 09:49 -26.77507 155.08074 40097 ft 413 kts 228°
2026-05-04 09:51 -26.92882 154.93544 40104 ft 416 kts 228°
2026-05-04 09:51 -26.96553 154.90067 40106 ft 416 kts 228°
2026-05-04 09:52 -27.00976 154.85874 40108 ft 416 kts 228°
2026-05-04 09:52 -27.05395 154.81680 40109 ft 416 kts 228°
2026-05-04 09:53 -27.09806 154.77489 40114 ft 416 kts 228°
2026-05-04 09:53 -27.14232 154.73279 40113 ft 416 kts 228°
2026-05-04 09:54 -27.18613 154.69108 40103 ft 415 kts 229°
2026-05-04 09:54 -27.23010 154.64916 40100 ft 414 kts 229°
2026-05-04 09:55 -27.27414 154.60713 40106 ft 416 kts 229°
2026-05-04 09:55 -27.31806 154.56518 40110 ft 418 kts 229°
2026-05-04 09:56 -27.36234 154.52285 40115 ft 417 kts 229°
2026-05-04 09:56 -27.40652 154.48056 40109 ft 416 kts 229°
2026-05-04 09:57 -27.45048 154.43843 40110 ft 414 kts 229°
2026-05-04 09:57 -27.49432 154.39636 40114 ft 414 kts 229°
2026-05-04 09:58 -27.53796 154.35446 40113 ft 415 kts 229°
2026-05-04 09:58 -27.58201 154.31209 40118 ft 418 kts 229°
2026-05-04 10:00 -27.75751 154.14289 40117 ft 415 kts 230°
2026-05-04 10:04 -28.06407 153.84555 40129 ft 415 kts 230°
2026-05-04 10:04 -28.10782 153.80292 40128 ft 415 kts 230°
2026-05-04 10:05 -28.15160 153.76022 40130 ft 415 kts 230°
2026-05-04 10:05 -28.19539 153.71746 40132 ft 416 kts 230°
2026-05-04 10:06 -28.23935 153.67447 40141 ft 418 kts 230°
2026-05-04 10:06 -28.28314 153.63164 40131 ft 418 kts 230°
2026-05-04 10:08 -28.43577 153.48187 40127 ft 414 kts 230°
2026-05-04 10:08 -28.47941 153.43895 40130 ft 415 kts 230°
2026-05-04 10:09 -28.52320 153.39583 40143 ft 416 kts 231°
2026-05-04 10:09 -28.56682 153.35281 40148 ft 415 kts 231°
2026-05-04 10:10 -28.61044 153.30978 40145 ft 414 kts 231°
2026-05-04 10:10 -28.65363 153.26708 40139 ft 414 kts 231°
2026-05-04 10:11 -28.69720 153.22398 40141 ft 415 kts 231°
2026-05-04 10:11 -28.74075 153.18086 40140 ft 414 kts 231°
2026-05-04 10:12 -28.78392 153.13805 40139 ft 414 kts 231°
2026-05-04 10:12 -28.82737 153.09490 40142 ft 415 kts 231°
2026-05-04 10:13 -28.87145 153.05224 40145 ft 422 kts 225°
2026-05-04 10:13 -28.92278 153.01755 40169 ft 431 kts 220°
2026-05-04 10:14 -28.97523 152.98424 40142 ft 430 kts 220°
2026-05-04 10:16 -29.18444 152.85133 40141 ft 431 kts 220°
2026-05-04 10:16 -29.23677 152.81798 40139 ft 431 kts 221°
2026-05-04 10:17 -29.28901 152.78463 40143 ft 434 kts 221°
2026-05-04 10:19 -29.49918 152.65015 40153 ft 432 kts 221°
2026-05-04 10:19 -29.55173 152.61644 40150 ft 433 kts 221°
2026-05-04 10:20 -29.60424 152.58268 40187 ft 433 kts 221°
2026-05-04 10:20 -29.65679 152.54890 40153 ft 432 kts 221°
2026-05-04 10:21 -29.70884 152.51536 40147 ft 432 kts 221°
2026-05-04 10:21 -29.76144 152.48141 40155 ft 435 kts 221°
2026-05-04 10:22 -29.84035 152.43049 40163 ft 433 kts 221°
2026-05-04 10:23 -29.89279 152.39652 40169 ft 432 kts 221°
2026-05-04 10:25 -30.10209 152.26073 40176 ft 432 kts 222°
2026-05-04 10:25 -30.15454 152.22657 40178 ft 433 kts 222°
2026-05-04 10:26 -30.20658 152.19270 40177 ft 432 kts 222°
2026-05-04 10:26 -30.25886 152.15857 40177 ft 431 kts 222°
2026-05-04 10:27 -30.31106 152.12446 40171 ft 432 kts 222°
2026-05-04 10:27 -30.36352 152.09015 40175 ft 434 kts 222°
2026-05-04 10:28 -30.41603 152.05578 40176 ft 433 kts 222°
2026-05-04 10:28 -30.46813 152.02160 40166 ft 433 kts 222°
2026-05-04 10:29 -30.52065 151.98714 40157 ft 433 kts 222°
2026-05-04 10:29 -30.57290 151.95279 40141 ft 431 kts 222°
2026-05-04 10:30 -30.62504 151.91845 40156 ft 432 kts 222°
2026-05-04 10:30 -30.67738 151.88397 40153 ft 433 kts 222°
2026-05-04 10:31 -30.72949 151.84959 40161 ft 433 kts 222°
2026-05-04 10:32 -30.91261 151.72842 40153 ft 433 kts 223°
2026-05-04 10:33 -30.96496 151.69368 40147 ft 433 kts 223°
2026-05-04 10:33 -31.01692 151.65915 40151 ft 433 kts 223°
2026-05-04 10:34 -31.06928 151.62432 40144 ft 434 kts 223°
2026-05-04 10:34 -31.12191 151.58924 40152 ft 437 kts 223°
2026-05-04 10:35 -31.17487 151.55394 40163 ft 439 kts 223°
2026-05-04 10:35 -31.22781 151.51860 40159 ft 438 kts 223°
2026-05-04 10:36 -31.28075 151.48317 40152 ft 439 kts 223°
2026-05-04 10:36 -31.33372 151.44773 40155 ft 438 kts 223°
2026-05-04 10:37 -31.38673 151.41308 40166 ft 445 kts 217°
2026-05-04 10:37 -31.44525 151.38617 40146 ft 453 kts 214°
2026-05-04 10:39 -31.65219 151.29360 40143 ft 456 kts 214°
2026-05-04 10:40 -31.71105 151.26718 40135 ft 455 kts 214°
2026-05-04 10:40 -31.77007 151.24063 40127 ft 455 kts 214°
2026-05-04 10:41 -31.82904 151.21419 40141 ft 450 kts 213°
2026-05-04 10:41 -31.88747 151.18775 40126 ft 452 kts 213°
2026-05-04 10:42 -31.94641 151.16122 40122 ft 453 kts 213°
2026-05-04 10:42 -32.00493 151.13500 40148 ft 454 kts 213°
2026-05-04 10:43 -32.06384 151.10861 40105 ft 451 kts 213°
2026-05-04 10:45 -32.29864 151.00291 40093 ft 455 kts 213°
2026-05-04 10:45 -32.35781 150.97620 40098 ft 455 kts 213°
2026-05-04 10:46 -32.41711 150.94934 39017 ft 465 kts 214°
2026-05-04 10:46 -32.44768 150.93576 38161 ft 474 kts 210°
2026-05-04 10:46 -32.48013 150.92601 37286 ft 490 kts 202°
2026-05-04 10:46 -32.51462 150.92123 36368 ft 508 kts 194°
2026-05-04 10:47 -32.55051 150.92211 35473 ft 525 kts 185°
2026-05-04 10:47 -32.58657 150.92792 34557 ft 533 kts 182°
2026-05-04 10:47 -32.62332 150.93445 33601 ft 534 kts 181°
2026-05-04 10:47 -32.66009 150.94106 32486 ft 537 kts 180°
2026-05-04 10:49 -32.91738 150.98675 26153 ft 517 kts 176°
2026-05-04 10:49 -32.95280 150.99312 25410 ft 512 kts 176°
2026-05-04 10:50 -32.98781 150.99937 24688 ft 506 kts 176°
2026-05-04 10:51 -33.22191 151.04125 19534 ft 465 kts 175°
2026-05-04 10:52 -33.25367 151.04696 18810 ft 459 kts 175°
2026-05-04 10:52 -33.28467 151.05292 18069 ft 454 kts 174°
2026-05-04 10:52 -33.31557 151.05907 17317 ft 448 kts 174°
2026-05-04 10:54 -33.52132 151.09850 12421 ft 401 kts 173°
2026-05-04 10:54 -33.54819 151.10372 11727 ft 392 kts 173°
2026-05-04 10:56 -33.70146 151.13362 7999 ft 292 kts 173°
2026-05-04 10:56 -33.72161 151.13757 8001 ft 292 kts 174°
2026-05-04 10:56 -33.74171 151.14143 7997 ft 292 kts 174°
2026-05-04 10:57 -33.76182 151.14532 8010 ft 293 kts 174°
2026-05-04 10:57 -33.78197 151.14923 8010 ft 293 kts 174°
2026-05-04 10:57 -33.80208 151.15310 7986 ft 294 kts 175°
2026-05-04 10:57 -33.82201 151.15165 7867 ft 285 kts 200°
2026-05-04 10:58 -33.84125 151.14566 7698 ft 286 kts 197°
2026-05-04 10:58 -33.86036 151.14071 7522 ft 284 kts 197°
2026-05-04 10:58 -33.87942 151.13541 7414 ft 275 kts 198°
2026-05-04 10:58 -33.89740 151.13015 7387 ft 258 kts 198°
2026-05-04 10:59 -33.91435 151.12521 7361 ft 244 kts 198°
2026-05-04 10:59 -33.93058 151.12052 7181 ft 239 kts 199°
2026-05-04 10:59 -33.94671 151.11585 6942 ft 237 kts 199°
2026-05-04 10:59 -33.96262 151.11127 6741 ft 231 kts 199°
2026-05-04 11:00 -33.97823 151.10676 6391 ft 231 kts 199°
2026-05-04 11:01 -34.08659 151.07881 5974 ft 238 kts 172°
2026-05-04 11:02 -34.10260 151.08307 5973 ft 237 kts 185°
2026-05-04 11:02 -34.11852 151.07926 6006 ft 232 kts 201°
2026-05-04 11:05 -34.30434 151.07144 5987 ft 220 kts 58°
2026-05-04 11:06 -34.29709 151.08717 5994 ft 211 kts 53°
2026-05-04 11:06 -34.28987 151.10215 5988 ft 207 kts 53°
2026-05-04 11:06 -34.28266 151.11721 5995 ft 207 kts 53°
2026-05-04 11:06 -34.27548 151.13217 6003 ft 205 kts 53°
2026-05-04 11:08 -34.21344 151.21654 5292 ft 187 kts 13°
2026-05-04 11:10 -34.13111 151.22415 3337 ft 156 kts 344°
2026-05-04 11:12 -34.06077 151.20582 1961 ft 141 kts 345°
2026-05-04 11:12 -34.05105 151.20327 1780 ft 142 kts 346°
2026-05-04 11:12 -34.04180 151.20090 1596 ft 128 kts 345°
2026-05-04 11:12 -34.03329 151.19864 1426 ft 124 kts 346°
2026-05-04 11:13 -34.02474 151.19642 1262 ft 126 kts 347°
2026-05-04 11:13 -34.01600 151.19415 1094 ft 131 kts 347°
2026-05-04 11:13 -34.00734 151.19190 912 ft 125 kts 346°
2026-05-04 11:13 -33.99853 151.18950 754 ft 134 kts 347°
2026-05-04 11:14 -33.98940 151.18699 618 ft 140 kts 348°
2026-05-04 11:14 -33.97983 151.18461 423 ft 137 kts 347°
2026-05-04 11:14 -33.97068 151.18226 223 ft 132 kts 351°
2026-05-04 11:16 -33.94267 151.17308 35 ft 0 kts 338°
2026-05-04 11:19 -33.94144 151.17269 34 ft 17 kts 347°
2026-05-04 11:19 -33.94062 151.17247 35 ft 0 kts 347°
2026-05-04 11:19 -33.94061 151.17247 35 ft 0 kts 347°
2026-05-04 11:19 -33.94055 151.17246 35 ft 2 kts 348°
2026-05-04 11:20 -33.94016 151.17234 35 ft 9 kts 341°
2026-05-04 11:20 -33.93983 151.17187 34 ft 5 kts 274°
2026-05-04 11:20 -33.94000 151.17100 34 ft 16 kts 253°
2026-05-04 11:20 -33.94033 151.16963 35 ft 18 kts 253°
2026-05-04 11:22 -33.94057 151.16283 36 ft 11 kts
2026-05-04 11:22 -33.93965 151.16299 36 ft 14 kts 11°
2026-05-04 11:23 -33.93884 151.16348 36 ft 11 kts 62°
2026-05-04 11:23 -33.93870 151.16421 36 ft 5 kts 82°
2026-05-04 11:24 -33.93860 151.16510 36 ft 0 kts 82°
2026-05-04 11:28 -34.05819 151.20515 1916 ft 163 kts 345°